Date String (YYYY-MM-DD hh:mm:ss) UTC,Instrument flags,Ambient pressure (hPa),Sample flow (lpm),Bypass flow (lpm),Sample temperature (°C),Ambient temperature (°C),ASC tube jacket temperature (°C),LED temperature (°C),Box temperature (°C),Sample RH (%),Span deviation,Mass concentration (μg/m³),Mass concentration (μg/m³),Mass concentration (μg/m³)
DateTimeUTC,F1_M11,P_M11,Q1_M11,Q2_M11,T1_M11,T2_M11,T3_M11,T4_M11,T5_M11,U1_M11,ZSPAN_M11,X0_M11,X2_M11,X1_M11
2021-09-06 12:00:00,,0830.1,4.99,0.00,30.2,29.2,00.0,39.3,32.0,07.8,0002.4,0018.72,0013.76,0013.09
2021-09-06 12:01:00,,0830.1,5.01,0.00,30.2,29.2,00.0,39.3,31.9,07.8,0002.7,0018.95,0013.85,0013.14
2021-09-06 12:02:00,,0830.2,4.99,0.00,30.2,29.2,00.0,39.3,32.0,07.8,0002.1,0019.04,0013.89,0013.18
2021-09-06 12:03:00,,0830.1,5.01,0.00,30.3,29.2,00.0,39.3,32.0,07.9,0001.6,0019.12,0013.93,0013.22
2021-09-06 12:04:00,,0830.1,5.00,0.00,30.3,29.2,00.0,39.3,32.0,07.8,0001.8,0019.17,0013.99,0013.27
2021-09-06 12:05:00,,0830.1,4.99,0.00,30.3,29.3,00.0,39.3,32.0,07.8,0001.0,0019.43,0014.02,0013.28
2021-09-06 12:06:00,,0830.1,4.99,0.00,30.3,29.2,00.0,39.4,32.0,07.8,0000.7,0019.32,0014.00,0013.28
2021-09-06 12:07:00,,0830.1,5.01,0.00,30.3,29.2,00.0,39.4,32.0,07.7,0001.1,0019.33,0014.05,0013.32
2021-09-06 12:08:00,,0830.1,5.00,0.00,30.3,29.3,00.0,39.4,32.0,07.7,0001.3,0019.39,0014.12,0013.38
2021-09-06 12:09:00,,0830.1,5.00,0.00,30.3,29.3,00.0,39.4,32.0,07.7,0001.5,0019.46,0014.17,0013.44
2021-09-06 12:10:00,,0830.1,5.00,0.00,30.3,29.3,00.0,39.4,32.0,07.7,0001.6,0019.40,0014.20,0013.50
2021-09-06 12:11:00,,0830.1,5.00,0.00,30.3,29.3,00.0,39.4,32.0,07.7,0001.6,0019.70,0014.31,0013.60
2021-09-06 12:12:00,,0830.1,5.00,0.00,30.3,29.4,00.0,39.4,32.0,07.7,0000.9,0020.16,0014.38,0013.71
2021-09-06 12:13:00,,0830.2,4.98,0.00,30.4,29.4,00.0,39.4,32.1,07.9,0001.6,0020.71,0014.45,0013.76
2021-09-06 12:14:00,,0830.2,5.01,0.00,30.4,29.4,00.0,39.5,32.1,08.4,0002.2,0021.28,0014.49,0013.79
2021-09-06 12:15:00,,0830.3,4.99,0.00,30.4,29.4,00.0,39.5,32.2,08.1,0002.2,0021.25,0014.49,0013.80
2021-09-06 12:16:00,,0830.2,5.00,0.00,30.4,29.5,00.0,39.5,32.1,08.0,0002.5,0020.92,0014.46,0013.81
2021-09-06 12:17:00,,0830.2,5.00,0.00,30.4,29.5,00.0,39.5,32.1,08.0,0002.7,0020.93,0014.48,0013.83
2021-09-06 12:18:00,,0830.2,5.00,0.00,30.4,29.5,00.0,39.5,32.1,07.9,0002.5,0021.15,0014.46,0013.81
2021-09-06 12:19:00,,0830.2,5.01,0.00,30.4,29.5,00.0,39.5,32.1,08.0,0001.9,0021.73,0014.38,0013.77
2021-09-06 12:20:00,,0830.2,5.01,0.00,30.4,29.5,00.0,39.5,32.1,08.0,0002.0,0021.77,0014.39,0013.76
2021-09-06 12:21:00,,0830.3,5.00,0.00,30.4,29.6,00.0,39.5,32.1,08.0,0002.2,0021.78,0014.39,0013.72
2021-09-06 12:22:00,,0830.3,5.00,0.00,30.4,29.6,00.0,39.5,32.1,08.0,0002.2,0021.65,0014.35,0013.65
2021-09-06 12:23:00,,0830.2,4.99,0.00,30.4,29.6,00.0,39.5,32.1,08.1,0002.7,0021.17,0014.26,0013.58
2021-09-06 12:24:00,,0830.2,4.99,0.00,30.4,29.6,00.0,39.5,32.1,08.1,0002.3,0020.50,0014.15,0013.50
2021-09-06 12:25:00,,0830.2,4.99,0.00,30.4,29.4,00.0,39.6,32.1,07.9,0001.5,0019.92,0014.18,0013.52
2021-09-06 12:26:00,,0830.2,5.00,0.00,30.3,27.4,00.0,39.5,31.6,07.9,0001.0,0020.00,0014.24,0013.58
2021-09-06 12:27:00,,0830.3,5.00,0.00,30.2,26.4,00.0,39.5,31.3,08.0,0000.3,0020.18,0014.28,0013.65
2021-09-06 12:28:00,,0830.3,5.01,0.00,30.1,26.6,00.0,39.4,31.4,08.0,0000.5,0020.29,0014.36,0013.73
2021-09-06 12:29:00,,0830.3,5.00,0.00,30.0,27.0,00.0,39.4,31.3,08.3,0000.4,0020.23,0014.49,0013.83
2021-09-06 12:30:00,,0830.4,4.98,0.00,29.9,27.4,00.0,39.3,31.4,08.4,0000.6,0019.90,0014.57,0013.91
2021-09-06 12:31:00,,0830.4,5.01,0.00,29.9,27.7,00.0,39.3,31.4,08.5,0000.4,0020.04,0014.62,0013.96
2021-09-06 12:32:00,,0830.4,4.99,0.00,29.9,28.0,00.0,39.3,31.5,08.7,-000.0,0020.13,0014.70,0014.05
2021-09-06 12:33:00,,0830.5,5.00,0.00,29.9,28.2,00.0,39.2,31.5,08.2,0000.5,0020.09,0014.79,0014.17
2021-09-06 12:34:00,,0830.4,4.99,0.00,29.9,28.4,00.0,39.2,31.6,08.0,0000.3,0020.28,0014.96,0014.29
2021-09-06 12:35:00,,0830.4,5.00,0.00,30.0,28.5,00.0,39.2,31.6,07.9,0000.8,0020.45,0015.11,0014.44
2021-09-06 12:36:00,,0830.4,4.99,0.00,30.0,28.6,00.0,39.2,31.7,07.8,0001.1,0020.41,0015.15,0014.48
2021-09-06 12:37:00,,0830.3,4.99,0.00,30.0,28.7,00.0,39.2,31.6,07.8,0001.3,0020.49,0015.18,0014.52
2021-09-06 12:38:00,,0830.4,4.99,0.00,30.0,28.7,00.0,39.2,31.7,07.7,0002.1,0020.40,0015.21,0014.54
2021-09-06 12:39:00,,0830.5,5.01,0.00,30.0,28.8,00.0,39.2,31.7,07.8,0002.2,0020.58,0015.22,0014.54
2021-09-06 12:40:00,,0830.4,5.00,0.00,30.0,28.9,00.0,39.2,31.7,08.0,0002.5,0020.68,0015.21,0014.55
2021-09-06 12:41:00,,0830.5,4.99,0.00,30.0,28.9,00.0,39.2,31.7,07.8,0002.5,0020.49,0015.22,0014.57
2021-09-06 12:42:00,,0830.4,5.01,0.00,30.1,28.9,00.0,39.2,31.7,07.8,0001.9,0020.65,0015.22,0014.59
2021-09-06 12:43:00,,0830.4,5.01,0.00,30.1,28.9,00.0,39.2,31.8,07.7,0001.8,0021.07,0015.22,0014.60
2021-09-06 12:44:00,,0830.4,5.01,0.00,30.1,29.0,00.0,39.2,31.8,07.7,0001.4,0021.21,0015.19,0014.57
2021-09-06 12:45:00,,0830.3,5.00,0.00,30.1,29.0,00.0,39.2,31.8,07.7,0001.2,0021.01,0015.12,0014.55
2021-09-06 12:46:00,,0830.4,5.00,0.00,30.1,29.0,00.0,39.2,31.8,07.7,0001.2,0021.07,0015.13,0014.55
2021-09-06 12:47:00,,0830.3,5.00,0.00,30.1,29.0,00.0,39.2,31.8,07.7,0001.2,0021.35,0015.15,0014.57
2021-09-06 12:48:00,,0830.4,4.99,0.00,30.2,29.1,00.0,39.2,31.9,07.7,0001.3,0021.76,0015.17,0014.61
2021-09-06 12:49:00,,0830.4,5.00,0.00,30.2,29.1,00.0,39.2,31.9,07.5,0000.8,0021.85,0015.22,0014.64
2021-09-06 12:50:00,,0830.4,5.01,0.00,30.2,29.1,00.0,39.2,31.9,07.6,0000.7,0021.60,0015.25,0014.70
2021-09-06 12:51:00,,0830.5,5.01,0.00,30.2,29.1,00.0,39.3,31.9,07.8,0000.9,0021.62,0015.32,0014.73
2021-09-06 12:52:00,,0830.3,4.99,0.00,30.2,29.2,00.0,39.3,31.9,07.8,0000.9,0021.67,0015.36,0014.78
2021-09-06 12:53:00,,0830.3,5.01,0.00,30.2,29.2,00.0,39.3,31.9,07.7,0001.1,0021.65,0015.46,0014.85
2021-09-06 12:54:00,,0830.3,5.00,0.00,30.2,29.2,00.0,39.3,32.0,07.7,0001.3,0021.31,0015.53,0014.89
2021-09-06 12:55:00,,0830.3,5.01,0.00,30.3,29.2,00.0,39.3,32.0,07.6,0001.7,0021.46,0015.60,0014.95
2021-09-06 12:56:00,,0830.3,4.99,0.00,30.3,29.2,00.0,39.3,32.0,07.6,0002.2,0022.42,0015.64,0014.98
2021-09-06 12:57:00,,0830.3,5.01,0.00,30.3,29.2,00.0,39.3,32.0,07.6,0002.1,0022.86,0015.68,0015.01
2021-09-06 12:58:00,,0830.3,5.00,0.00,30.3,29.3,00.0,39.3,32.0,07.5,0002.8,0023.09,0015.71,0015.04
2021-09-06 12:59:00,,0830.3,4.99,0.00,30.3,29.3,00.0,39.4,32.0,07.5,0003.6,0022.87,0015.76,0015.07
